Other Public Products
Issued by NWS Grand Forks, ND

Home | Current Version | Previous Version | Text Only | Print | Product List | Glossary Off
Versions: 1 2 3 4 5 6 7 8 9 10 11 12 13 14 15 16 17 18 19 20 21 22 23 24 25 26 27 28 29 30 31 32 33 34 35 36 37 38 39 40 41 42 43 44 45 46 47 48 49 50

000
FPUS83 KFGF 291710
OPUFGF
PRAIRIE TO PINES WEATHER ROUNDUP
NATIONAL WEATHER SERVICE EASTERN NORTH DAKOTA/GRAND FORKS ND
1200 PM CDT SUN MAR 29 2015

 **SATELLITE DATA USED TO AUGMENT SKY COVER AT AUTOMATED STATIONS**
 *****  WEATHER ACROSS EASTERN NORTH DAKOTA  *****

CITY           SKY/WX    TMP DP  RH WIND       PRES   REMARKS
GRAND FORKS    PTSUNNY   47  33  58 NW25G36   29.84R
GRAND FORKS AF NOT AVBL
GRAND CITY NWS   N/A     45 N/A N/A N14         N/A
BUXTON         NOT AVBL
DEVILS LAKE    SUNNY     48  34  57 NW21G30   29.91R
FARGO          PTSUNNY   49  34  56 NW30G41   29.85R
WAHPETON ARPT  PTSUNNY   46  34  61 NW35G44   29.85R
$$

 *****  WEATHER ACROSS CENTRAL AND WESTERN NORTH DAKOTA  *****

CITY           SKY/WX    TMP DP  RH WIND       PRES   REMARKS
JAMESTOWN      SUNNY     49  33  54 NW26G36   29.93R
BISMARCK       SUNNY     51  30  44 NW20G28   30.06R
MINOT          SUNNY     50  30  46 W17       30.00R
MINOT AFB      SUNNY     48  35  60 NW21      29.99R
GARRISON         N/A     49  36  61 NW17G25   30.03R
WILLISTON      SUNNY     49  38  65 W14       30.07S
DICKINSON      MOSUNNY   48  35  60 W21G29    30.08R
HETTINGER      MOSUNNY   49  33  54 NW20      30.13R
$$

 *****  OTHER OBSERVATIONS NORTHEAST NORTH DAKOTA  *****

CITY           SKY/WX    TMP DP  RH WIND       PRES   REMARKS
WALHALLA         N/A     46  37  71 NW25G36   29.85R
LANGDON        NOT AVBL
CAVALIER       FAIR      46  36  66 NW24G30   29.84R
GRAFTON        NOT AVBL
CANDO          NOT AVBL
FORT TOTTEN    NOT AVBL
ROLLA          FAIR      46  28  49 NW22G29   29.92R
RUGBY            N/A     46  34  61 NW22      29.96R
 ***** THE ABOVE OBSERVATIONS ARE NON NWS ARE NOT QUALITY
        CONTROLLED AND MAY MIS-REPORT RAIN FOR SNOW...
$$

 *****  OTHER OBSERVATIONS SOUTHEAST NORTH DAKOTA *****

CITY           SKY/WX    TMP DP  RH WIND       PRES   REMARKS
COOPERSTOWN    NOT AVBL
VALLEY CITY    FAIR      48  32  53 NW30G38   29.90R
OAKES            N/A     48  37  66 NW26G35   29.93R
GWINNER        SUNNY     48  36  61 NW29G37     N/A
SHEYENNE NWR     N/A     49  34  56 NW22      29.95S
BUFFALO        NOT AVBL
WYNDMERE         N/A     48  37  66 NW26        N/A
 ***** THE ABOVE OBSERVATIONS ARE NON NWS ARE NOT QUALITY
       CONTROLLED AND MAY MIS-REPORT RAIN FOR SNOW...
$$

  *****  WEATHER ACROSS NORTHERN MINNESOTA  *****

CITY           SKY/WX    TMP DP  RH WIND       PRES   REMARKS
FLAG ISLAND    CLOUDY    36  30  80 NW29G35   29.67R
WARROAD        PTSUNNY   37  34  87 NW23G39   29.71R
ROSEAU         PTSUNNY   39  36  87 NW28G37   29.73R
HALLOCK        CLOUDY    43  37  81 N18G24    29.83R
THF RVR FALLS  CLOUDY    39  34  81 NW29G35   29.79R
HALSTAD        NOT AVBL
FOSSTON        PTSUNNY   37  34  87 NW24G33   29.77R
BAUDETTE       CLOUDY    37  32  82 NW28G36   29.65R
WASKISH        CLOUDY    36  34  93 NW20G32   29.66R
CROOKSTON      PTSUNNY   43  36  75 N29G38    29.83R
$$
  *****  WEATHER ACROSS CENTRAL AND WEST MINNESOTA  *****

CITY           SKY/WX    TMP DP  RH WIND       PRES   REMARKS
BEMIDJI        CLOUDY    39  33  76 NW31G38   29.68R
PARK RAPIDS    PTSUNNY   43  32  65 NW24G39   29.69R
WADENA         CLOUDY    37  34  87 NW24G33   29.73R
DETROIT LAKES  PTSUNNY   39  34  81 N29G46    29.78R
MOORHEAD       MOSUNNY   46  41  81 N25G40    29.84R
FERGUS FALLS   MOSUNNY   45  34  65 N31G39    29.84R
ELBOW LAKE     CLOUDY    42  34  72 NW30G41   29.81R
MORRIS MN      MOSUNNY   46  36  66 NW37G46   29.81R
STAPLES        PTSUNNY   43  36  75 NW24G39   29.68R
WHEATON        MOSUNNY   46  34  61 NW32G38   29.87R
$$
  *****  WEATHER ELSEWHERE ACROSS MINNESOTA  *****

CITY           SKY/WX    TMP DP  RH WIND       PRES   REMARKS
DULUTH         LGT SNOW  34  31  88 W13       29.47R VSB 1   WCI  25
INTRNTL FALLS  CLOUDY    37  33  85 NW17G31   29.56R
ELY            FLURRIES  34  32  93 NW13      29.45R WCI  25
CLOQUET        LGT SNOW  34  32  93 W10G16    29.50R
BRAINERD       CLOUDY    41  35  79 NW28G35   29.63R
HIBBING        LGT RAIN  36  32  85 NW22G30   29.50R
ALEXANDRIA     PTSUNNY   40  32  73 NW30G44   29.76R
SAINT CLOUD    CLOUDY    41  37  86 NW24G37   29.64R
MINNEAPOLIS    LGT RAIN  43  38  82 W32G44    29.60R
$$

  *****  WEATHER ACROSS SOUTH DAKOTA  *****

CITY           SKY/WX    TMP DP  RH WIND       PRES   REMARKS
SIOUX FALLS    CLOUDY    49  35  58 NW31G49   29.94R
BROOKINGS      NOT AVBL
WATERTOWN      MOSUNNY   48  35  60 NW31G43   29.91R
HURON          SUNNY     51  32  48 NW32G43   30.01R
SISSETON         N/A     48  37  65 N38G46    29.86R
ABERDEEN       SUNNY     52  31  44 NW28G40   30.00R
MITCHELL       MOSUNNY   52  35  52 NW35G43   30.03R
PIERRE         SUNNY     53  29  39 NW24G31   30.11R
MOBRIDGE       SUNNY     52  29  41 NW28G35   30.05R
RAPID CITY     SUNNY     54  32  43 N22G30    30.19F
$$

  *****  SOME WEATHER IN NEARBY STATES *****

CITY           SKY/WX    TMP DP  RH WIND       PRES   REMARKS
GLASGOW MT     SUNNY     50  38  63 W10       30.09F
GREAT FALLS MT CLOUDY    49  25  39 SW21      30.13F
CHEYENNE WY    SUNNY     50  16  25 NW16G23   30.29S
SCOTTSBLUFF NE SUNNY     57  27  31 NW24G33   30.27F
OMAHA NE       PTSUNNY   60  39  45 NW31G43   29.94R
DES MOINES IA  MOSUNNY   57  40  52 W24G36    29.87S
DAVENPORT IA   PTSUNNY   38  30  73 S24G33    29.89F
CHICAGO IL     LGT RAIN  34  26  72 S24G32    29.92F WCI  21
EAU CLAIRE WI  NOT AVBL
LA CROSSE WI   CLOUDY    41  34  76 S13G21    29.68F
$$

  *****  SOME NATIONAL WEATHER *****

CITY           SKY/WX    TMP DP  RH WIND       PRES   REMARKS
LA GUARDIA NY  SUNNY     38   2  22 NW5       30.26F
RALEIGH NC     SUNNY     43   7  22 SE5       30.41F
ATLANTA GA     SUNNY     50  12  21 SE5       30.38F
NEW ORLEANS LA MOSUNNY   74  58  57 SE14      30.29F
OKLAHOMA CITY  MOSUNNY   70  46  42 VRB5      30.00R
ALBUQUERQUE NM PTSUNNY   66  18  15 SW6       30.28R
SALT LAKE CITY SUNNY     52  22  30 VRB3      30.34R
LOS ANGELES CA PTSUNNY   63  57  81 CALM      30.06S HAZE
BOISE ID       SUNNY     53  31  42 S7        30.33R
SEATTLE WA     CLOUDY    51  44  77 SE8       30.27S
$$

*** WEATHER ACROSS MANITOBA...SASKATCHEWAN AND ONTARIO ***
                ***ONTARIO***

CITY           SKY/WX    TMP DP  RH WIND       PRES   REMARKS
GERALDTON      LGT SNOW  30  27  86 S15G23    29.37F VSB 3/4 WCI  19
THUNDER BAY    NOT AVBL
SIOUX LOOKOUT  FLURRIES  34  32  93 N16G25    29.46R WCI  23
TORONTO        MOSUNNY   39  18  41 S14G22    30.16F
BIG TROUT LK   LGT SNOW  34  32  93 N13G23    29.42R WCI  25
PICKLE LAKE    LGT SNOW  34  30  86 NW9G24    29.37R DRFTSNOW
DRYDEN         LGT RAIN  34  32  93 NW16G30   29.51R FOG     WCI  23
KENORA         FLURRIES  34  30  86 NW16G24   29.63R WCI  23
$$
                *** MANITOBA***

CITY           SKY/WX    TMP DP  RH WIND       PRES   REMARKS
BRANDON        MOSUNNY   43  32  65 NW16      29.92R
DAUPHIN        SUNNY     39  30  70 W16       29.86S
ISLAND LAKE    CLOUDY    30  25  80 NW17G24   29.64R WCI  18
PILOT MOUND      N/A     45  34  65 NW22G30     N/A
THE PAS        SUNNY     43  27  52 W14       29.77S
THOMPSON       CLOUDY    25  19  80 NE13      29.73R WCI  13
WINNIPEG       MOSUNNY   45  36  70 NW22G29   29.81R
LYNN LAKE      CLOUDY    28  23  80 N5        29.74R WCI  23
GILLAM         SNOW      16  10  79 N17       29.73R VSB 1/2 WCI   0
$$
                ***SASKATCHEWAN***

CITY           SKY/WX    TMP DP  RH WIND       PRES   REMARKS
ESTEVAN        MOSUNNY   46  37  71 W17       30.01F
KINDERSLEY     MOSUNNY   46  37  71 S7        29.94F
LLOYDMINSTER   MOSUNNY   46  34  61 SW12      29.88S
PRINCE ALBERT  MOSUNNY   46  32  57 W6        29.90F
REGINA         MOSUNNY   43  39  87 W16       29.99S
YORKTON        PTSUNNY   43  32  65 W16       29.91S


USA.gov is the U.S. government's official web portal to all federal, state and local government web resources and services.